GW5556 Weather Reports


time (UTC)temp
F
wind
direction
speed
knots
gust
knots
rain 1hr
in
rain 24hr
in
rain mn
in
humidity
%
barometer
mb
20260508114506 43 250 0.0 0.9 0.00 0.09 0.01 77 1015.8
20260508113014 40 274 0.0 1.7 0.00 0.09 0.01 76 1015.7
20260508111510 39 290 0.0 0.9 0.00 0.09 0.01 77 1015.4
20260508110017 38 290 0.0 0.9 0.01 0.09 0.01 75 1015.2
20260508104513 36 291 0.0 0.9 0.01 0.09 0.01 75 1015.1
20260508103012 37 326 0.0 0.9 0.01 0.09 0.01 75 1014.8
20260508101510 37 326 0.0 2.6 0.01 0.09 0.01 74 1014.6
20260508100018 37 326 0.0 1.7 0.00 0.08 0.00 72 1014.3
20260508094513 38 326 0.9 7.0 0.00 0.08 0.00 75 1014.2
20260508093013 38 275 0.0 1.7 0.00 0.08 0.00 75 1014.1
20260508091516 39 275 0.0 1.7 0.00 0.08 0.00 75 1014.2
20260508090017 39 275 0.9 3.5 0.00 0.08 0.00 75 1014.0
20260508084516 39 275 0.0 2.6 0.00 0.08 0.00 75 1013.8
20260508083013 39 250 0.0 1.7 0.00 0.08 0.00 74 1013.6
20260508081534 40 250 0.0 2.6 0.00 0.08 0.00 74 1013.5
20260508080016 41 246 0.0 2.6 0.00 0.08 0.00 75 1013.4
20260508074516 40 244 0.0 1.7 0.00 0.08 0.00 74 1013.2
20260508073018 41 244 1.7 3.5 0.00 0.09 0.00 74 1013.2
20260508071534 41 272 0.9 2.6 0.00 0.09 0.00 74 1013.2
20260508070016 41 272 0.0 5.2 0.00 0.09 0.00 74 1013.2
20260508064516 41 310 0.0 4.3 0.00 0.09 0.00 73 1013.1
20260508063029 42 360 0.9 3.5 0.00 0.09 0.00 73 1013.0
20260508061520 41 53 0.9 2.6 0.00 0.09 0.00 72 1013.1
20260508060021 43 5 0.0 2.6 0.00 0.09 0.00 72 1013.2
20260508054516 43 33 0.0 2.6 0.00 0.09 0.00 71 1013.2
20260508053014 43 49 0.0 2.6 0.00 0.09 0.00 71 1013.1
20260508051512 44 317 0.9 1.7 0.00 0.09 0.00 71 1013.0
20260508050009 44 317 0.0 2.6 0.00 0.09 0.00 71 1012.8
20260508044527 45 316 0.9 3.5 0.00 0.09 0.00 71 1012.6
20260508043020 44 315 0.9 5.2 0.00 0.09 0.00 71 1012.4
20260508041515 45 323 0.9 3.5 0.00 0.09 0.00 70 1012.2
20260508040021 45 325 1.7 3.5 0.00 0.09 0.00 71 1012.3
20260508034516 45 325 0.0 1.7 0.00 0.09 0.09 71 1012.0
20260508033024 46 325 0.9 2.6 0.00 0.09 0.09 71 1011.8
20260508031516 47 325 1.7 3.5 0.00 0.11 0.09 71 1011.7
20260508030020 47 325 0.0 2.6 0.00 0.13 0.09 71 1011.8
20260508024532 48 325 0.9 2.6 0.00 0.13 0.09 71 1011.4
20260508023004 48 325 0.0 3.5 0.00 0.14 0.09 70 1011.3
20260508021505 50 325 1.7 2.6 0.00 0.14 0.09 69 1011.2
20260508020014 49 327 3.5 7.0 0.00 0.14 0.09 69 1011.1
20260508014514 50 324 0.9 3.5 0.00 0.14 0.09 69 1010.9
20260508013003 51 325 0.0 1.7 0.00 0.14 0.09 67 1010.6
20260508011505 53 325 0.0 1.7 0.00 0.14 0.09 64 1010.3
20260508010004 54 325 0.9 6.1 0.00 0.14 0.09 61 1010.1
20260508004513 55 333 1.7 3.5 0.00 0.14 0.09 56 1010.0
20260508003015 56 306 1.7 6.1 0.00 0.14 0.09 56 1010.2
20260508001504 56 350 2.6 7.8 0.00 0.14 0.09 57 1010.2
20260508000008 56 333 2.6 8.7 0.00 0.14 0.09 65 1010.1
20260507234510 57 316 1.7 5.2 0.00 0.14 0.09 70 1009.8
20260507233025 58 321 1.7 3.5 0.00 0.14 0.09 71 1009.7
20260507231532 58 276 0.0 1.7 0.00 0.14 0.09 71 1009.4
20260507230005 58 338 0.0 0.9 0.00 0.14 0.09 71 1009.4
20260507224510 58 28 0.0 1.7 0.00 0.14 0.09 70 1009.2
20260507223013 58 25 0.0 2.6 0.00 0.14 0.09 69 1008.9
20260507221513 59 34 2.6 7.8 0.00 0.14 0.09 68 1008.7
20260507220021 59 36 0.9 3.5 0.00 0.14 0.09 68 1008.9
20260507214510 59 49 0.9 5.2 0.00 0.14 0.09 68 1008.8
20260507213014 58 78 2.6 6.1 0.00 0.14 0.09 67 1008.7
20260507211521 58 92 2.6 7.0 0.00 0.14 0.09 70 1008.5
20260507210011 57 43 3.5 7.0 0.00 0.14 0.09 70 1008.5
20260507204512 57 103 3.5 7.8 0.00 0.14 0.09 70 1008.5
20260507203035 56 101 2.6 6.1 0.00 0.14 0.09 72 1008.6
20260507201511 56 92 0.9 3.5 0.01 0.14 0.09 72 1008.6
20260507200019 55 111 0.9 4.3 0.01 0.14 0.09 72 1008.8
20260507194520 55 54 0.0 4.3 0.01 0.14 0.09 72 1009.2
20260507193018 55 41 2.6 5.2 0.01 0.14 0.09 71 1009.1
20260507191512 55 320 3.5 7.8 0.00 0.13 0.08 71 1009.2
20260507190014 56 54 2.6 7.0 0.00 0.13 0.08 72 1009.4
20260507184520 56 78 0.9 7.0 0.00 0.13 0.08 72 1009.4
20260507183024 56 47 4.3 9.6 0.00 0.13 0.08 72 1009.3
20260507181524 56 49 4.3 8.7 0.00 0.13 0.08 72 1009.4
20260507180023 56 40 7.0 11.3 0.00 0.13 0.08 72 1009.0
20260507174516 56 94 1.7 8.7 0.00 0.13 0.08 72 1009.3
20260507173024 57 63 3.5 9.6 0.04 0.13 0.08 72 1009.1
20260507171510 57 42 6.1 13.0 0.07 0.13 0.08 71 1009.2
20260507170008 58 350 4.3 8.7 0.07 0.13 0.08 71 1008.9
20260507164514 59 75 1.7 7.0 0.07 0.13 0.08 72 1008.8
20260507163011 59 37 1.7 5.2 0.03 0.10 0.04 71 1009.2
20260507161514 59 42 3.5 10.4 0.00 0.07 0.01 70 1009.1
20260507160015 59 64 0.9 7.8 0.00 0.07 0.01 71 1009.1
20260507154509 60 80 3.5 7.0 0.00 0.07 0.01 71 1008.9
20260507153018 59 56 3.5 7.8 0.00 0.07 0.01 70 1009.1
20260507151522 59 83 3.5 9.6 0.00 0.07 0.01 70 1009.0
20260507150024 59 63 2.6 6.1 0.00 0.07 0.01 71 1009.2
20260507144525 59 62 2.6 7.0 0.00 0.07 0.01 71 1009.1
20260507143013 59 46 1.7 7.8 0.00 0.07 0.01 72 1008.8
20260507141519 59 33 2.6 7.0 0.00 0.08 0.01 73 1008.7
20260507140027 59 49 2.6 4.3 0.00 0.08 0.01 74 1008.7
20260507134524 59 28 2.6 7.8 0.00 0.08 0.01 74 1008.6
20260507133024 59 15 3.5 7.8 0.00 0.08 0.01 74 1008.9
20260507131517 59 108 2.6 7.0 0.00 0.08 0.01 74 1009.0
20260507130019 60 67 0.9 5.2 0.00 0.08 0.01 75 1009.6
20260507124530 60 63 1.7 4.3 0.00 0.08 0.01 76 1009.4
20260507123017 60 102 1.7 6.1 0.00 0.08 0.01 76 1009.6
20260507121526 60 91 1.7 5.2 0.00 0.08 0.01 76 1009.7
20260507120018 61 86 2.6 6.1 0.00 0.08 0.01 76 1009.2